Find Starlink 31364

NORAD ID: 59463 Int'l Des: 2024-068 Owner: SPXS Country: US Constellation: starlink operational
LEOCIRCULAR

Live Position

Loading 3D Globe...

About Starlink 31364

Description loading...

Upcoming Passes

Passes for default location (London). Set your location on the main map for personalized predictions.

Altitude History

Loading altitude history...

Two-Line Element Set

1 59463U 24068J 26124.58684870 .00007223 00000-0 27166-3 0 9997
2 59463 43.0043 75.1938 0001510 263.3367 96.7313 15.27591623117114
Epoch: May 4, 2026 • Age: 9 hours

Current Status

Altitude 482.4 km
Velocity 7.63 km/s
Sub-Earth Point 9.47°N, 133.06°W
Launch Date Apr 10, 2024
Age 2 years
Type internet

Technical Details

Classification Payload
Mass 730.00 kg
Dry Mass 700.00 kg
Total Mass 730.00 kg
Length 0.30 m
Diameter 4.10 m
Span 29.00 m
Shape Box + pan
Manufacturer SPXS
Bus Type Starlink V2M
Phase Status In Orbit
Owner/State SPXS/US

Most Searched